Location: Delta State University
(33.7460°N, 90.7320°W)
Time: 18:31:42
(UTC-05:00)

Iridium 13 - Visible Passes

Search period start: 29 June 2016 00:00
Search period end: 09 July 2016 00:00
Orbit: 776 x 779 km, 86.4° (Epoch: 29 June)

Date Brightness Start Highest point End Pass type
(mag) Time Alt. Az. Time Alt. Az. Time Alt. Az.
29 Jun 7.6 02:21:33 10° NE 02:25:07 18° E 02:26:51 16° ESE visible
29 Jun 6.1 04:01:05 10° NNW 04:05:56 40° W 04:07:18 34° WSW visible
30 Jun 5.4 03:27:17 10° N 03:32:31 80° W 03:33:32 58° SSW visible
01 Jul 6.0 02:53:53 10° N 02:58:59 52° E 02:59:47 48° ESE visible
01 Jul 7.3 04:36:32 10° NW 04:39:08 14° W 04:40:14 13° W visible
02 Jul 7.1 02:20:56 10° NNE 02:25:20 27° E 02:26:03 26° E visible
02 Jul 6.6 04:01:35 10° NNW 04:05:55 27° W 04:06:30 26° W visible
03 Jul 7.9 01:48:53 10° NE 01:51:33 14° ENE 01:52:20 14° E visible
03 Jul 5.7 03:27:30 10° NNW 03:32:34 53° W 03:32:46 52° W visible
04 Jul 5.5 02:53:52 10° N 02:59:04 79° E 02:59:04 79° E visible
05 Jul 6.5 02:20:37 10° NNE 02:25:22 40° E 02:25:22 40° E visible
05 Jul 7.1 04:02:21 10° NW 04:05:49 18° W 04:05:49 18° W visible
06 Jul 7.4 01:47:55 10° NNE 01:51:42 21° ENE 01:51:42 21° ENE visible
06 Jul 6.4 03:27:51 10° NNW 03:32:09 34° WNW 03:32:09 34° WNW visible
07 Jul 8.1 01:17:08 10° ENE 01:17:59 10° ENE 01:18:02 10° ENE visible
07 Jul 5.7 02:53:58 10° N 02:58:29 61° NW 02:58:29 61° NW visible
08 Jul 6.1 02:20:29 10° N 02:24:49 53° NE 02:24:49 53° NE visible
08 Jul 7.6 04:03:48 10° WNW 04:05:17 12° WNW 04:05:17 12° WNW visible
